DW7658 Weather Reports


Display with metric or nautical units.
time (UTC)temp
F
wind
direction
speed
MPH
gust
MPH
rain 1hr
in
rain 24hr
in
rain mn
in
humidity
%
barometer
mb
20260905011557 74 307 0.0 0.0 0.00 0.00 0.00 85 1007.5
20260905010055 75 307 0.0 0.0 0.00 0.00 0.00 84 1007.1
20260905004536 75 307 0.0 0.0 0.00 0.00 0.00 83 1007.2
20260905003035 76 307 0.0 0.0 0.00 0.00 0.00 82 1006.9
20260905001517 77 307 0.0 0.0 0.00 0.00 0.00 80 1006.7
20260905000030 79 307 0.0 0.0 0.00 0.00 0.00 77 1006.9
20260904234559 79 307 0.0 0.0 0.00 0.00 0.00 76 1007.0
20260904233106 80 306 0.0 0.0 0.00 0.00 0.00 76 1007.1
20260904231540 82 307 0.0 0.0 0.00 0.00 0.00 76 1006.9
20260904230140 83 307 0.0 0.0 0.00 0.00 0.00 72 1006.6
20260904224527 83 306 0.0 0.0 0.00 0.00 0.00 72 1006.3
20260904223021 83 307 0.0 0.0 0.00 0.00 0.00 69 1006.3
20260904221501 84 307 0.0 1.0 0.00 0.00 0.00 66 1006.6
20260904220114 85 290 0.0 1.0 0.00 0.00 0.00 63 1007.6
20260904214544 87 276 1.0 5.0 0.00 0.00 0.00 60 1007.8
20260904213043 92 360 1.0 9.0 0.00 0.00 0.00 56 1007.8
20260904211527 97 316 0.0 1.0 0.00 0.00 0.00 51 1007.3
20260904210033 98 129 0.0 3.0 0.00 0.00 0.00 52 1007.3
20260904204508 98 340 0.0 2.0 0.00 0.00 0.00 49 1007.0
20260904203005 100 226 0.0 2.0 0.00 0.00 0.00 47 1007.3
20260904201546 101 232 0.0 5.0 0.00 0.00 0.00 44 1007.2
20260904200047 100 28 0.0 3.0 0.00 0.00 0.00 48 1007.3
20260904194528 101 101 0.0 1.0 0.00 0.00 0.00 48 1007.4
20260904193028 100 287 0.0 2.0 0.00 0.00 0.00 47 1007.6
20260904191510 100 253 0.0 4.0 0.00 0.00 0.00 46 1007.7
20260904190005 101 284 1.0 4.0 0.00 0.00 0.00 47 1007.9
20260904184554 101 5 0.0 2.0 0.00 0.00 0.00 46 1008.2
20260904183053 100 284 0.0 1.0 0.00 0.00 0.00 49 1008.1
20260904181528 100 260 0.0 2.0 0.00 0.00 0.00 48 1008.2
20260904180026 100 56 2.0 7.0 0.00 0.00 0.00 48 1008.6
20260904174508 101 124 0.0 3.0 0.00 0.00 0.00 53 1008.7
20260904173020 100 127 0.0 4.0 0.00 0.00 0.00 49 1009.1
20260904171554 101 55 0.0 2.0 0.00 0.00 0.00 49 1009.3
20260904170051 100 106 0.0 3.0 0.00 0.00 0.00 49 1009.3
20260904164532 100 316 0.0 5.0 0.00 0.00 0.00 51 1009.4
20260904163030 101 9 0.0 4.0 0.00 0.00 0.00 53 1009.3
20260904161510 101 129 0.0 3.0 0.00 0.00 0.00 52 1009.4
20260904160006 100 354 0.0 1.0 0.00 0.00 0.00 53 1009.6
20260904154549 99 211 0.0 4.0 0.00 0.00 0.00 53 1009.5
20260904153052 99 256 0.0 1.0 0.00 0.00 0.00 54 1009.4
20260904151526 98 37 0.0 2.0 0.00 0.00 0.00 56 1009.5
20260904150033 98 50 0.0 1.0 0.00 0.00 0.00 58 1009.6
20260904144503 97 311 0.0 1.0 0.00 0.00 0.00 59 1009.6
20260904143101 96 266 0.0 1.0 0.00 0.00 0.00 61 1009.4
20260904141539 94 256 0.0 1.0 0.00 0.00 0.00 65 1009.6
20260904140048 93 50 0.0 1.0 0.00 0.00 0.00 65 1009.5
20260904134514 91 39 0.0 1.0 0.00 0.00 0.00 69 1009.5
20260904133011 89 32 0.0 1.0 0.00 0.00 0.00 73 1009.6
20260904131548 86 307 0.0 1.0 0.00 0.00 0.00 76 1009.6
20260904130045 84 40 0.0 0.0 0.00 0.00 0.00 80 1009.9
20260904124522 81 27 0.0 0.0 0.00 0.00 0.00 84 1009.9
20260904123019 79 27 0.0 0.0 0.00 0.00 0.00 86 1009.9
20260904121601 75 27 0.0 0.0 0.00 0.00 0.00 86 1009.7
20260904120109 72 27 0.0 0.0 0.00 0.00 0.00 87 1009.4
20260904114544 0 0.0 0.0 0.00 0.00 0.00 1009.3
20260904113038 0 0.0 0.0 0.00 0.00 0.00 1009.3
20260904111515 0 0.0 0.0 0.00 0.00 0.00 1009.0
20260904110009 0 0.0 0.0 0.00 0.00 0.00 1008.9
20260904104548 0 0.0 0.0 0.00 0.00 0.00 1008.7
20260904103043 0 0.0 0.0 0.00 0.00 0.00 1008.7
20260904101527 0 0.0 0.0 0.00 0.00 0.00 1008.8
20260904100022 0 0.0 0.0 0.00 0.00 0.00 1008.7
20260904094531 0 0.0 0.0 0.00 0.00 0.00 1008.6
20260904093013 0 0.0 0.0 0.00 0.00 0.00 1008.6
20260904091508 0 0.0 0.0 0.00 0.00 0.00 1008.5
20260904090004 0 0.0 0.0 0.00 0.00 0.00 1008.7
20260904084600 0 0.0 0.0 0.00 0.00 0.00 1008.5
20260904083105 0 0.0 0.0 0.00 0.00 0.00 1008.6
20260904081533 0 0.0 0.0 0.00 0.00 0.00 1008.7
20260904080030 0 0.0 0.0 0.00 0.00 0.00 1008.6
20260904074509 70 27 0.0 0.0 0.00 0.00 0.00 87 1008.6
20260904073006 71 27 0.0 0.0 0.00 0.00 0.00 87 1008.8
20260904071548 72 27 0.0 0.0 0.00 0.00 0.00 87 1008.8
20260904070047 72 27 0.0 0.0 0.00 0.00 0.00 87 1008.8
20260904064537 72 27 0.0 0.0 0.00 0.00 0.00 87 1009.0
20260904063029 72 27 0.0 0.0 0.00 0.00 0.00 87 1009.1
20260904061508 72 27 0.0 0.0 0.00 0.00 0.00 87 1009.1
20260904060008 72 27 0.0 0.0 0.00 0.00 0.00 87 1009.1
20260904054552 72 27 0.0 0.0 0.00 0.00 0.00 87 1009.1
20260904053048 73 27 0.0 0.0 0.00 0.00 0.00 87 1009.2
20260904051530 73 27 0.0 0.0 0.00 0.00 0.00 87 1009.2
20260904050040 73 27 0.0 0.0 0.00 0.00 0.00 87 1009.1
20260904044509 73 27 0.0 0.0 0.00 0.00 0.00 87 1009.1
20260904043010 73 27 0.0 0.0 0.00 0.00 0.00 87 1009.2
20260904041609 74 27 0.0 0.0 0.00 0.00 0.00 87 1009.1
20260904040050 74 27 0.0 0.0 0.00 0.00 0.00 87 1009.1
20260904034549 74 27 0.0 0.0 0.00 0.00 0.00 87 1009.0
20260904033028 75 27 0.0 0.0 0.00 0.00 0.00 87 1008.9
20260904031525 75 27 0.0 0.0 0.00 0.00 0.00 86 1008.9
20260904030005 76 27 0.0 0.0 0.00 0.00 0.00 86 1009.0
20260904024505 76 27 0.0 0.0 0.00 0.00 0.00 86 1009.2
20260904023045 77 27 0.0 0.0 0.00 0.00 0.00 85 1009.3
20260904021551 77 27 0.0 0.0 0.00 0.00 0.00 85 1009.2
20260904020023 78 27 0.0 0.0 0.00 0.00 0.00 84 1009.2
20260904014520 78 27 0.0 0.0 0.00 0.00 0.00 83 1009.3
20260904013001 79 27 0.0 0.0 0.00 0.00 0.00 83 1009.5